This is the latest recevied weather packets stored in our database for station/object N8SDR. If no packets are shown the sender has not sent any weather packets the latest 10 day(s).
| Time | Temp. | Humidity | Pressure | Rain* | Wind** | Luminosity | Snow |
|---|---|---|---|---|---|---|---|
| 1778170467 | 12.78° C | 53% | 1012.3 hPa | 0 mm | - | 729 W/m² | - |
| 1778170164 | 12.22° C | 54% | 1012.3 hPa | 0 mm | - | 704 W/m² | - |
| 1778169860 | 12.78° C | 52% | 1012.3 hPa | 0 mm | - | 718 W/m² | - |
| 1778169556 | 12.22° C | 50% | 1012.1 hPa | 0 mm | - | 737 W/m² | - |
| 1778169252 | 12.22° C | 52% | 1012.3 hPa | 0 mm | - | 717 W/m² | - |
| 1778168949 | 12.78° C | 51% | 1012.3 hPa | 0 mm | - | 753 W/m² | - |
| 1778168646 | 12.78° C | 49% | 1012.1 hPa | 0 mm | - | 772 W/m² | - |
| 1778168343 | 12.78° C | 51% | 1012.3 hPa | 0 mm | - | 804 W/m² | - |
| 1778168188 | 12.78° C | 53% | 1012.3 hPa | 0 mm | - | 814 W/m² | - |
| 1778168040 | 12.78° C | 53% | 1012.3 hPa | 0 mm | - | 814 W/m² | - |
| 1778167944 | 12.22° C | 53% | 1012.2 hPa | 0 mm | - | 789 W/m² | - |
| 1778167736 | 12.22° C | 53% | 1012.2 hPa | 0 mm | - | 789 W/m² | - |
| 1778167653 | 11.67° C | 53% | 1012.2 hPa | 0 mm | - | 776 W/m² | - |
| 1778167433 | 12.22° C | 52% | 1012.2 hPa | 0 mm | - | 786 W/m² | - |
| 1778167129 | 11.67° C | 53% | 1012.2 hPa | 0 mm | - | 776 W/m² | - |
| 1778166825 | 11.67° C | 51% | 1012.1 hPa | 0 mm | - | 779 W/m² | - |
| 1778166522 | 11.67° C | 50% | 1012.2 hPa | 0 mm | - | 779 W/m² | - |
| 1778166219 | 12.22° C | 52% | 1012.3 hPa | 0 mm | - | 767 W/m² | - |
| 1778165915 | 11.67° C | 51% | 1012.2 hPa | 0 mm | - | 756 W/m² | - |
| 1778165611 | 12.22° C | 51% | 1012.2 hPa | 0 mm | - | 745 W/m² | - |
| 1778165309 | 11.67° C | 51% | 1012 hPa | 0 mm | - | 741 W/m² | - |
| 1778165006 | 11.11° C | 54% | 1012.1 hPa | 0 mm | - | 698 W/m² | - |
| 1778164702 | 11.67° C | 51% | 1012.2 hPa | 0 mm | - | 691 W/m² | - |
| 1778164400 | 11.11° C | 52% | 1012.3 hPa | 0 mm | - | 674 W/m² | - |
| 1778164095 | 11.67° C | 55% | 1012.3 hPa | 0 mm | - | 653 W/m² | - |
* Rain latest hour (hover to see other rain measurements)
** Current wind speed in m/s (hover to see current wind gust speed)